Regional Weather Roundup
Issued by NWS

Home | Current Version | Previous Version | Graphics & Text | Print | Product List | Glossary On
Versions: 1 2 3 4 5 6 7 8 9 10 11 12 13 14 15 16 17 18 19 20 21 22 23 24 25 26 27 28 29 30 31 32 33 34 35 36 37 38 39 40 41 42 43 44 45 46 47 48 49 50
000
ASUS43 KMPX 230701
RWRMN
WEATHER ROUNDUP FOR MINNESOTA
NATIONAL WEATHER SERVICE TWIN CITIES/CHANHASSEN MN
100 AM CST THU FEB 23 2017


NOTE: "FAIR" INDICATES FEW OR NO CLOUDS BELOW 12,000 FEET WITH NO
SIGNIFICANT WEATHER AND/OR OBSTRUCTIONS TO VISIBILITY. N/A MEANS
CURRENT SKY AND/OR WEATHER CONDITIONS ARE NOT AVAILABLE.

MNZ060>063-068>070-230800-
   Twin Cities Metro

CITY           SKY/WX    TMP DP  RH WIND       PRES   REMARKS
TWIN CITIES    CLOUDY    37  30  75 N15       29.82R
ST PAUL        CLOUDY    36  34  92 NW13      29.83R
CRYSTAL        CLOUDY    36  29  75 N14       29.82R
BLAINE         CLOUDY    37  36  93 N15       29.81R
LAKEVILLE      CLOUDY    36  34  93 N16G22    29.82R
EDEN PRAIRIE   CLOUDY    37  31  78 N10       29.82R
SOUTH ST PAUL  CLOUDY    37  35  93 N10G20    29.81R
LAKE ELMO      CLOUDY    36  34  93 N9        29.82R
$$
MNZ001>005-007-008-013>017-022>024-027-028-230800-
   Northwest Minnesota

CITY           SKY/WX    TMP DP  RH WIND       PRES   REMARKS
BEMIDJI        CLOUDY    27  22  80 N13       29.90R WCI  17
HALLOCK        CLOUDY    28  25  86 N8        29.98S WCI  20
ROSEAU         MOCLDY    27  19  74 N12       29.95R WCI  16
WARROAD        CLOUDY    27  19  74 NW8       29.94R WCI  18
THIEF RVR FALL CLEAR     25  23  92 NW7       29.97R WCI  17
CROOKSTON      CLEAR     28  25  86 N7        29.99R WCI  21
FOSSTON        CLEAR     27  23  86 N9        29.94S WCI  17
DETROIT LAKES  CLEAR     28  27  93 N10       29.93R WCI  19
MOORHEAD       CLEAR     30  27  86 N14       29.97R WCI  20
PARK RAPIDS    CLEAR     21  17  84 NW6       29.89R WCI  13
MAHNOMEN       FAIR      28  26  89 N10       29.93R WCI  19
$$
MNZ006-009>011-018-025>026-230800-
   North Central Minnesota

CITY           SKY/WX    TMP DP  RH WIND       PRES   REMARKS
BAUDETTE       CLOUDY    25  16  68 NW13      29.90R WCI  14
FLAG ISLAND    CLOUDY    27  18  69 NW22      29.92R WCI  12
INTL FALLS     CLOUDY    26  20  77 NW7       29.87R WCI  18
WASKISH        PTCLDY    25  19  80 N5        29.92R WCI  19
BIG FORK       CLEAR     25  21  86 NW5       29.87R WCI  19
LONGVILLE      CLEAR     27  25  93 NW5       29.88R WCI  21
GRAND RAPIDS   CLEAR     25  23  92 NW9       29.87R WCI  15
CRANE LAKE     CLOUDY    28  23  80 N3        29.85R
ORR            MOCLDY    27  21  80 CALM      29.81R
COOK           CLEAR     25  23  93 CALM      29.83R
WALKER         CLOUDY    26  22  84 NW6       29.89R WCI  20
$$
MNZ012-019>021-037-230800-
   Northeast Minnesota

CITY           SKY/WX    TMP DP  RH WIND       PRES   REMARKS
DULUTH         CLOUDY    31  28  89 N13G21    29.79R WCI  21
ELY            CLOUDY    28  25  86 CALM      29.79R
HIBBING        CLEAR     26  26 100 NW10      29.82R WCI  16
EVELETH        CLEAR     30  26  86 NW5       29.82R WCI  25
DULUTH HARBOR  MIX PCPN  34  30  86 N12       29.82R WCI  25
TWO HARBORS    CLOUDY    36  28  75 N6        29.77R
SILVER BAY     CLOUDY    34  28  80 N7        29.76R WCI  28
GRAND MARAIS     N/A     34  26  72 VRB5      29.76R WCI  30
G MARAIS ARPRT CLOUDY    27  19  74 NW13G25   29.71R WCI  16
$$
MNZ029>031-032-039>041-046>048-054>057-064-230800-
   West Central Minnesota

CITY           SKY/WX    TMP DP  RH WIND       PRES   REMARKS
FERGUS FALLS   CLEAR     28  27  93 N6        29.97S WCI  22
WHEATON        CLEAR     30  27  86 NW9       29.96R WCI  22
MORRIS         CLEAR     30  28  93 N15       29.89S WCI  19
ALEXANDRIA     CLEAR     30  25  81 N13       29.89R WCI  20
ELBOW LAKE     FAIR      29  28  93 NW9       29.92S WCI  21
WADENA         CLEAR     27  25  93 CALM      29.90R
GLENWOOD       CLEAR     30  27  86 N13       29.89R WCI  20
APPLETON       CLOUDY    34  28  80 N10       29.92R WCI  26
BENSON         PTCLDY    34  27  75 NE6       29.93R WCI  29
ORTONVILLE     MOCLDY    30  27  86 N12       29.93R WCI  21
MADISON        CLOUDY    36  28  75 N12G21    29.94R
$$
MNZ033>034-036-042>043-049>051-058-059-230800-
   Central Minnesota

CITY           SKY/WX    TMP DP  RH WIND       PRES   REMARKS
ST CLOUD       PTCLDY    32  28  85 N13       29.85R WCI  22
SAUK CENTRE    FAIR      29  25  83 N12       29.88S WCI  20
AITKIN         CLEAR     30  25  80 NW6       29.85R WCI  24
PINE RIVER     CLEAR     27  25  93 N8        29.91R WCI  18
BRAINERD       CLEAR     27  25  92 NW8       29.88R WCI  19
STAPLES        CLEAR     27  25  93 NW9       29.89R WCI  17
LONG PRAIRIE   FAIR      28  27  93 NW9       29.88R WCI  20
LITTLE FALLS   CLEAR     30  27  86 NW3       29.89R
LITCHFIELD     CLOUDY    34  30  86 NW10      29.87R WCI  26
BUFFALO        CLOUDY    34  30  85 NW8       29.86R WCI  27
MAPLE LAKE     CLOUDY    35  31  87 NW15      29.87R WCI  25
HUTCHINSON     CLOUDY    35  32  88 NW15      29.87R WCI  26
$$
MNZ037-044-045-052-053-230800-
   East Central Minnesota

CITY           SKY/WX    TMP DP  RH WIND       PRES   REMARKS
PRINCETON      CLOUDY    36  30  80 NW9       29.85R
MORA           MOCLDY    32  30  93 N9        29.85R WCI  24
CAMBRIDGE      CLOUDY    36  30  80 NW13      29.81R
RUSH CITY      CLOUDY    34  30  86 NW8       29.82R WCI  27
MOOSE LAKE     CLOUDY    32  28  86 N7        29.81R WCI  26
HINCKLEY       LGT SNOW  34  32  93 N9        29.82R WCI  26
CLOQUET        CLOUDY    30  28  93 NW12      29.80R WCI  21
MCGREGOR       PTCLDY    30  28  93 NW8       29.85R WCI  23
$$
MNZ071>073-080-081-089-090-097-098-230800-
   Southwest Minnesota

CITY           SKY/WX    TMP DP  RH WIND       PRES   REMARKS
MONTEVIDEO     CLOUDY    34  30  86 N10       29.93R WCI  26
GRANITE FALLS  CLOUDY    35  32  88 NW12G17   29.92R WCI  26
CANBY          CLOUDY    33  29  86 NW13      29.95R WCI  24
MARSHALL       CLOUDY    32  30  92 N15       29.91R WCI  22
REDWOOD FALLS  CLOUDY    35  31  85 N10       29.88R WCI  27
OLIVIA         CLOUDY    34  32  93 N13       29.88R WCI  25
PIPESTONE      CLOUDY    32  27  80 N12       29.88S WCI  23
WINDOM         CLOUDY    34  34 100 NW21      29.85S WCI  22
WORTHINGTON    CLOUDY    32  31  96 N22G28    29.85F WCI  19
JACKSON          N/A     34  32  93 N17G25    29.84R WCI  23
TRACY          CLOUDY    33  32  96 NW16      29.90R WCI  22
SLAYTON        CLOUDY    31  30  96 NW18      29.89S WCI  19
$$
MNZ065>067-074>077-082>085-091>093-230800-
   South Central Minnesota

CITY           SKY/WX    TMP DP  RH WIND       PRES   REMARKS
MANKATO          N/A     36  32  85 N17G23    29.85R
NEW ULM        CLOUDY    36  30  80 N14       29.86R
ST JAMES       CLOUDY    36  34  93 NW18      29.86S
FAIRMONT       CLOUDY    36  33  89 N21G28    29.83S
GLENCOE        CLOUDY    37  34  90 NW13      29.85R
FARIBAULT      CLOUDY    37  34  87 NW16      29.82R
OWATONNA       CLOUDY    37  34  87 NW15      29.81R
WASECA         CLOUDY    36  32  87 NW17G24   29.84R
ALBERT LEA     CLOUDY    39  36  87 NW15G22   29.80R
$$
MNZ078>079-086>088-094>096-230800-
   Southeast Minnesota

CITY           SKY/WX    TMP DP  RH WIND       PRES   REMARKS
ROCHESTER      CLOUDY    39  37  92 NW17      29.76R
RED WING       CLOUDY    39  34  81 NW13      29.78R
STANTON        CLOUDY    38  34  85 N14       29.79R
WINONA         CLOUDY    43  36  75 NW12G17   29.75R
AUSTIN         CLOUDY    39  36  87 NW14G22   29.78R
PRESTON        CLOUDY    40  37  86 NW13      29.75R
$$
ABBREVIATIONS USED IN REMARKS
   TC - TEMPERATURES IN CELSIUS
  WCI - WIND CHILL INDEX
   HX - HEAT INDEX
  VSB - VISIBILITY
$$




USA.gov is the U.S. government's official web portal to all federal, state and local government web resources and services.